Time,TemperatureF,DewpointF,PressureIn,WindDirection,WindDirectionDegrees,WindSpeedMPH,WindSpeedGustMPH,Humidity,HourlyPrecipIn,Conditions,Clouds,dailyrainin,SoftwareType,DateUTC
2013-03-13 00:00:00,52.7,33.6,29.89,North,0,0.0,0.0,48,0.00,,,0.00,WUHU216HW,2013-03-13 04:00:00,
2013-03-13 00:01:00,52.7,33.6,29.89,North,0,0.0,0.0,48,0.00,,,0.00,WUHU216HW,2013-03-13 04:01:00,
2013-03-13 00:06:00,52.6,33.9,29.89,North,0,0.0,0.0,49,0.00,,,0.00,WUHU216HW,2013-03-13 04:06:00,
2013-03-13 00:11:00,52.4,34.3,29.89,North,0,0.0,0.0,50,0.00,,,0.00,WUHU216HW,2013-03-13 04:11:00,
2013-03-13 00:16:00,52.0,34.5,29.89,North,0,0.0,0.0,51,0.00,,,0.00,WUHU216HW,2013-03-13 04:16:00,
2013-03-13 00:21:00,51.7,34.1,29.89,North,0,0.0,0.0,51,0.00,,,0.00,WUHU216HW,2013-03-13 04:21:00,
2013-03-13 00:26:00,51.5,34.4,29.89,North,0,0.0,0.0,52,0.00,,,0.00,WUHU216HW,2013-03-13 04:26:00,
2013-03-13 00:31:00,51.1,34.1,29.89,North,0,0.0,0.0,52,0.00,,,0.00,WUHU216HW,2013-03-13 04:31:00,
2013-03-13 00:36:00,50.8,33.8,29.89,North,0,0.0,0.0,52,0.00,,,0.00,WUHU216HW,2013-03-13 04:36:00,
2013-03-13 00:41:00,50.6,34.0,29.89,North,0,0.0,0.0,53,0.00,,,0.00,WUHU216HW,2013-03-13 04:41:00,
2013-03-13 00:47:00,50.4,33.9,29.89,North,0,0.0,0.0,53,0.00,,,0.00,WUHU216HW,2013-03-13 04:47:00,
2013-03-13 00:52:00,50.0,34.0,29.89,North,0,0.0,0.0,54,0.00,,,0.00,WUHU216HW,2013-03-13 04:52:00,
2013-03-13 00:57:00,49.9,33.8,29.89,North,0,0.0,0.0,54,0.00,,,0.00,WUHU216HW,2013-03-13 04:57:00,
2013-03-13 01:02:00,49.7,34.1,29.89,North,0,0.0,0.0,55,0.00,,,0.00,WUHU216HW,2013-03-13 05:02:00,
2013-03-13 01:07:00,49.3,33.8,29.89,North,0,0.0,0.0,55,0.00,,,0.00,WUHU216HW,2013-03-13 05:07:00,
2013-03-13 01:12:00,49.1,34.1,29.89,North,0,0.0,0.0,56,0.00,,,0.00,WUHU216HW,2013-03-13 05:12:00,
2013-03-13 01:18:00,49.0,33.9,29.89,North,0,0.0,0.0,56,0.00,,,0.00,WUHU216HW,2013-03-13 05:18:00,
2013-03-13 01:23:00,48.6,33.6,29.89,North,0,0.0,0.0,56,0.00,,,0.00,WUHU216HW,2013-03-13 05:23:00,
2013-03-13 01:28:00,48.6,34.0,29.90,North,0,0.0,0.0,57,0.00,,,0.00,WUHU216HW,2013-03-13 05:28:00,
2013-03-13 01:33:00,48.2,33.7,29.90,North,0,0.0,0.0,57,0.00,,,0.00,WUHU216HW,2013-03-13 05:33:00,
2013-03-13 01:38:00,48.1,34.0,29.90,North,0,0.0,0.0,58,0.00,,,0.00,WUHU216HW,2013-03-13 05:38:00,
2013-03-13 01:43:00,47.9,33.9,29.90,North,0,0.0,0.0,58,0.00,,,0.00,WUHU216HW,2013-03-13 05:43:00,
2013-03-13 01:48:00,47.7,33.7,29.90,North,0,0.0,0.0,58,0.00,,,0.00,WUHU216HW,2013-03-13 05:48:00,
2013-03-13 01:53:00,47.5,33.9,29.90,North,0,0.0,0.0,59,0.00,,,0.00,WUHU216HW,2013-03-13 05:53:00,
2013-03-13 01:58:00,47.3,33.8,29.90,North,0,0.0,0.0,59,0.00,,,0.00,WUHU216HW,2013-03-13 05:58:00,
2013-03-13 02:03:00,47.2,34.0,29.90,North,0,0.0,0.0,60,0.00,,,0.00,WUHU216HW,2013-03-13 06:03:00,
2013-03-13 02:08:00,47.0,33.4,29.91,North,0,0.0,0.0,59,0.00,,,0.00,WUHU216HW,2013-03-13 06:08:00,
2013-03-13 02:13:00,46.8,33.2,29.91,North,0,0.0,0.0,59,0.00,,,0.00,WUHU216HW,2013-03-13 06:13:00,
2013-03-13 02:18:00,46.4,33.3,29.91,North,0,0.0,0.0,60,0.00,,,0.00,WUHU216HW,2013-03-13 06:18:00,
2013-03-13 02:23:00,46.4,33.3,29.91,North,0,0.0,0.0,60,0.00,,,0.00,WUHU216HW,2013-03-13 06:23:00,
2013-03-13 02:29:00,46.3,33.6,29.90,North,0,0.0,0.0,61,0.00,,,0.00,WUHU216HW,2013-03-13 06:29:00,
2013-03-13 02:34:00,46.1,33.4,29.91,North,0,0.0,0.0,61,0.00,,,0.00,WUHU216HW,2013-03-13 06:34:00,
2013-03-13 02:39:00,45.7,33.0,29.91,North,0,0.0,0.0,61,0.00,,,0.00,WUHU216HW,2013-03-13 06:39:00,
2013-03-13 02:44:00,45.5,33.3,29.91,North,0,0.0,0.0,62,0.00,,,0.00,WUHU216HW,2013-03-13 06:44:00,
2013-03-13 02:49:00,45.4,33.1,29.91,North,0,0.0,0.0,62,0.00,,,0.00,WUHU216HW,2013-03-13 06:49:00,
2013-03-13 02:54:00,45.2,33.0,29.91,North,0,0.0,0.0,62,0.00,,,0.00,WUHU216HW,2013-03-13 06:54:00,
2013-03-13 02:59:00,45.0,33.1,29.91,North,0,0.0,0.0,63,0.00,,,0.00,WUHU216HW,2013-03-13 06:59:00,
2013-03-13 03:04:00,45.0,33.1,29.91,North,0,0.0,0.0,63,0.00,,,0.00,WUHU216HW,2013-03-13 07:04:00,
2013-03-13 03:09:00,44.8,32.9,29.91,North,0,0.0,0.0,63,0.00,,,0.00,WUHU216HW,2013-03-13 07:09:00,
2013-03-13 03:14:00,44.6,32.9,29.91,North,0,0.0,0.0,63,0.00,,,0.00,WUHU216HW,2013-03-13 07:14:00,
2013-03-13 03:19:00,44.5,32.7,29.91,North,0,0.0,0.0,63,0.00,,,0.00,WUHU216HW,2013-03-13 07:19:00,
2013-03-13 03:24:00,44.3,32.5,29.92,North,0,0.0,0.0,63,0.00,,,0.00,WUHU216HW,2013-03-13 07:24:00,
2013-03-13 03:29:00,44.1,32.3,29.92,North,0,0.0,0.0,63,0.00,,,0.00,WUHU216HW,2013-03-13 07:29:00,
2013-03-13 03:35:00,43.9,32.5,29.92,North,0,0.0,0.0,64,0.00,,,0.00,WUHU216HW,2013-03-13 07:35:00,
2013-03-13 03:40:00,43.7,32.3,29.91,North,0,0.0,0.0,64,0.00,,,0.00,WUHU216HW,2013-03-13 07:40:00,
2013-03-13 03:45:00,43.6,32.6,29.91,North,0,0.0,0.0,65,0.00,,,0.00,WUHU216HW,2013-03-13 07:45:00,
2013-03-13 03:50:00,43.6,32.6,29.91,North,0,0.0,0.0,65,0.00,,,0.00,WUHU216HW,2013-03-13 07:50:00,
2013-03-13 03:55:00,43.4,32.8,29.91,North,0,0.0,0.0,66,0.00,,,0.00,WUHU216HW,2013-03-13 07:55:00,
2013-03-13 04:00:00,43.2,32.6,29.91,North,0,0.0,0.0,66,0.00,,,0.00,WUHU216HW,2013-03-13 08:00:00,
2013-03-13 04:06:00,43.2,32.6,29.91,North,0,0.0,0.0,66,0.00,,,0.00,WUHU216HW,2013-03-13 08:06:00,
2013-03-13 04:11:00,42.8,32.2,29.91,North,0,0.0,0.0,66,0.00,,,0.00,WUHU216HW,2013-03-13 08:11:00,
2013-03-13 04:16:00,42.8,32.7,29.91,North,0,0.0,0.0,67,0.00,,,0.00,WUHU216HW,2013-03-13 08:16:00,
2013-03-13 04:21:00,42.8,32.7,29.91,North,0,0.0,0.0,67,0.00,,,0.00,WUHU216HW,2013-03-13 08:21:00,
2013-03-13 04:26:00,42.7,32.5,29.91,North,0,0.0,0.0,67,0.00,,,0.00,WUHU216HW,2013-03-13 08:26:00,
2013-03-13 04:31:00,42.5,32.7,29.91,North,0,0.0,0.0,68,0.00,,,0.00,WUHU216HW,2013-03-13 08:31:00,
2013-03-13 04:36:00,42.3,32.5,29.91,North,0,0.0,0.0,68,0.00,,,0.00,WUHU216HW,2013-03-13 08:36:00,
2013-03-13 04:41:00,42.1,32.3,29.92,North,0,0.0,0.0,68,0.00,,,0.00,WUHU216HW,2013-03-13 08:41:00,
2013-03-13 04:46:00,42.1,32.3,29.92,North,0,0.0,0.0,68,0.00,,,0.00,WUHU216HW,2013-03-13 08:46:00,
2013-03-13 04:51:00,41.9,31.8,29.92,North,0,0.0,0.0,67,0.00,,,0.00,WUHU216HW,2013-03-13 08:51:00,
2013-03-13 04:56:00,41.8,31.6,29.92,North,0,0.0,0.0,67,0.00,,,0.00,WUHU216HW,2013-03-13 08:56:00,
2013-03-13 05:01:00,41.8,32.0,29.92,North,0,0.0,0.0,68,0.00,,,0.00,WUHU216HW,2013-03-13 09:01:00,
2013-03-13 05:06:00,41.6,31.8,29.93,North,0,0.0,0.0,68,0.00,,,0.00,WUHU216HW,2013-03-13 09:06:00,
2013-03-13 05:11:00,41.4,31.7,29.93,North,0,0.0,0.0,68,0.00,,,0.00,WUHU216HW,2013-03-13 09:11:00,
2013-03-13 05:16:00,41.4,32.1,29.93,North,0,0.0,0.0,69,0.00,,,0.00,WUHU216HW,2013-03-13 09:16:00,
2013-03-13 05:21:00,41.2,31.9,29.93,North,0,0.0,0.0,69,0.00,,,0.00,WUHU216HW,2013-03-13 09:21:00,
2013-03-13 05:27:00,41.0,31.7,29.93,North,0,0.0,0.0,69,0.00,,,0.00,WUHU216HW,2013-03-13 09:27:00,
2013-03-13 05:32:00,41.0,32.0,29.93,North,0,0.0,0.0,70,0.00,,,0.00,WUHU216HW,2013-03-13 09:32:00,
2013-03-13 05:37:00,40.9,31.9,29.94,North,0,0.0,0.0,70,0.00,,,0.00,WUHU216HW,2013-03-13 09:37:00,
2013-03-13 05:42:00,40.9,31.9,29.94,North,0,0.0,0.0,70,0.00,,,0.00,WUHU216HW,2013-03-13 09:42:00,
2013-03-13 05:47:00,40.7,32.1,29.94,North,0,0.0,0.0,71,0.00,,,0.00,WUHU216HW,2013-03-13 09:47:00,
2013-03-13 05:52:00,40.7,32.1,29.94,North,0,0.0,0.0,71,0.00,,,0.00,WUHU216HW,2013-03-13 09:52:00,
2013-03-13 05:57:00,40.7,32.1,29.94,North,0,0.0,0.0,71,0.00,,,0.00,WUHU216HW,2013-03-13 09:57:00,
2013-03-13 06:02:00,40.5,31.9,29.94,North,0,0.0,0.0,71,0.00,,,0.00,WUHU216HW,2013-03-13 10:02:00,
2013-03-13 06:07:00,40.3,31.7,29.94,North,0,0.0,0.0,71,0.00,,,0.00,WUHU216HW,2013-03-13 10:07:00,
2013-03-13 06:12:00,40.3,31.7,29.95,North,0,0.0,0.0,71,0.00,,,0.00,WUHU216HW,2013-03-13 10:12:00,
2013-03-13 06:17:00,40.1,31.5,29.95,North,0,0.0,0.0,71,0.00,,,0.00,WUHU216HW,2013-03-13 10:17:00,
2013-03-13 06:22:00,40.1,31.8,29.95,North,0,0.0,0.0,72,0.00,,,0.00,WUHU216HW,2013-03-13 10:22:00,
2013-03-13 06:27:00,40.1,31.8,29.95,North,0,0.0,0.0,72,0.00,,,0.00,WUHU216HW,2013-03-13 10:27:00,
2013-03-13 06:32:00,40.0,31.6,29.95,North,0,0.0,0.0,72,0.00,,,0.00,WUHU216HW,2013-03-13 10:32:00,
2013-03-13 06:37:00,40.0,31.6,29.95,North,0,0.0,0.0,72,0.00,,,0.00,WUHU216HW,2013-03-13 10:37:00,
2013-03-13 06:43:00,39.8,31.4,29.96,North,0,0.0,0.0,72,0.00,,,0.00,WUHU216HW,2013-03-13 10:43:00,
2013-03-13 06:48:00,39.8,31.4,29.95,North,0,0.0,0.0,72,0.00,,,0.00,WUHU216HW,2013-03-13 10:48:00,
2013-03-13 06:53:00,39.6,31.3,29.96,North,0,0.0,0.0,72,0.00,,,0.00,WUHU216HW,2013-03-13 10:53:00,
2013-03-13 06:58:00,39.6,31.6,29.96,North,0,0.0,0.0,73,0.00,,,0.00,WUHU216HW,2013-03-13 10:58:00,
2013-03-13 07:03:00,39.4,31.4,29.96,North,0,0.0,0.0,73,0.00,,,0.00,WUHU216HW,2013-03-13 11:03:00,
2013-03-13 07:08:00,39.4,31.4,29.96,North,0,0.0,0.0,73,0.00,,,0.00,WUHU216HW,2013-03-13 11:08:00,
2013-03-13 07:13:00,39.2,31.2,29.96,North,0,0.0,0.0,73,0.00,,,0.00,WUHU216HW,2013-03-13 11:13:00,
2013-03-13 07:18:00,39.2,31.2,29.96,North,0,0.0,0.0,73,0.00,,,0.00,WUHU216HW,2013-03-13 11:18:00,
2013-03-13 07:23:00,39.2,31.2,29.96,North,0,0.0,0.0,73,0.00,,,0.00,WUHU216HW,2013-03-13 11:23:00,
2013-03-13 07:28:00,39.1,31.4,29.96,North,0,0.0,0.0,74,0.00,,,0.00,WUHU216HW,2013-03-13 11:28:00,
2013-03-13 07:34:00,39.1,31.4,29.96,North,0,0.0,0.0,74,0.00,,,0.00,WUHU216HW,2013-03-13 11:34:00,
2013-03-13 07:39:00,38.9,31.2,29.96,North,0,0.0,0.0,74,0.00,,,0.00,WUHU216HW,2013-03-13 11:39:00,
2013-03-13 07:44:00,38.9,31.2,29.96,North,0,0.0,0.0,74,0.00,,,0.00,WUHU216HW,2013-03-13 11:44:00,
2013-03-13 07:49:00,38.9,31.2,29.96,North,0,0.0,0.0,74,0.00,,,0.00,WUHU216HW,2013-03-13 11:49:00,
2013-03-13 07:54:00,38.9,31.2,29.97,North,0,0.0,0.0,74,0.00,,,0.00,WUHU216HW,2013-03-13 11:54:00,
2013-03-13 07:59:00,38.7,31.2,29.96,North,0,0.0,0.0,74,0.00,,,0.00,WUHU216HW,2013-03-13 11:59:00,
2013-03-13 08:04:00,38.7,31.2,29.97,North,0,0.0,0.0,74,0.00,,,0.00,WUHU216HW,2013-03-13 12:04:00,
2013-03-13 08:09:00,38.9,31.6,29.97,North,0,0.0,0.0,75,0.00,,,0.00,WUHU216HW,2013-03-13 12:09:00,
2013-03-13 08:14:00,38.7,31.4,29.96,North,0,0.0,0.0,75,0.00,,,0.00,WUHU216HW,2013-03-13 12:14:00,
2013-03-13 08:19:00,38.9,31.6,29.97,North,0,0.0,0.0,75,0.00,,,0.00,WUHU216HW,2013-03-13 12:19:00,
2013-03-13 08:24:00,39.1,31.8,29.97,North,0,0.0,0.0,75,0.00,,,0.00,WUHU216HW,2013-03-13 12:24:00,
2013-03-13 08:29:00,39.2,32.3,29.97,North,0,0.0,0.0,76,0.00,,,0.00,WUHU216HW,2013-03-13 12:29:00,
2013-03-13 08:34:00,39.4,32.5,29.97,North,0,0.0,0.0,76,0.00,,,0.00,WUHU216HW,2013-03-13 12:34:00,
2013-03-13 08:39:00,39.8,33.1,29.97,North,0,0.0,0.0,77,0.00,,,0.00,WUHU216HW,2013-03-13 12:39:00,
2013-03-13 08:45:00,40.1,33.5,29.97,North,0,0.0,0.0,77,0.00,,,0.00,WUHU216HW,2013-03-13 12:45:00,
2013-03-13 08:50:00,40.7,33.9,29.97,North,0,0.0,0.0,77,0.00,,,0.00,WUHU216HW,2013-03-13 12:50:00,
2013-03-13 08:55:00,41.2,34.5,29.96,North,0,0.0,0.0,77,0.00,,,0.00,WUHU216HW,2013-03-13 12:55:00,
2013-03-13 09:00:00,41.8,35.0,29.97,North,0,0.0,0.0,77,0.00,,,0.00,WUHU216HW,2013-03-13 13:00:00,
2013-03-13 09:05:00,42.5,36.1,29.97,North,0,0.0,0.0,78,0.00,,,0.00,WUHU216HW,2013-03-13 13:05:00,
2013-03-13 09:10:00,43.6,37.4,29.97,North,0,0.0,0.0,79,0.00,,,0.00,WUHU216HW,2013-03-13 13:10:00,
2013-03-13 09:15:00,45.0,38.9,29.97,North,0,0.0,0.0,79,0.00,,,0.00,WUHU216HW,2013-03-13 13:15:00,
2013-03-13 09:20:00,46.4,40.0,29.97,North,0,0.0,0.0,78,0.00,,,0.00,WUHU216HW,2013-03-13 13:20:00,
2013-03-13 09:25:00,47.5,40.6,29.98,North,0,0.0,0.0,77,0.00,,,0.00,WUHU216HW,2013-03-13 13:25:00,
2013-03-13 09:30:00,48.2,40.6,29.98,North,0,0.0,0.0,75,0.00,,,0.00,WUHU216HW,2013-03-13 13:30:00,
2013-03-13 09:35:00,48.8,40.2,29.97,North,0,0.0,0.0,72,0.00,,,0.00,WUHU216HW,2013-03-13 13:35:00,
2013-03-13 09:40:00,49.3,40.0,29.97,North,0,0.0,0.0,70,0.00,,,0.00,WUHU216HW,2013-03-13 13:40:00,
2013-03-13 09:45:00,50.0,39.9,29.98,North,0,0.0,0.0,68,0.00,,,0.00,WUHU216HW,2013-03-13 13:45:00,
2013-03-13 09:50:00,50.8,40.2,29.98,North,0,0.0,0.0,67,0.00,,,0.00,WUHU216HW,2013-03-13 13:50:00,
2013-03-13 09:55:00,51.3,39.9,29.97,North,0,0.0,0.0,65,0.00,,,0.00,WUHU216HW,2013-03-13 13:55:00,
2013-03-13 10:00:00,51.8,40.0,29.97,North,0,0.0,0.0,64,0.00,,,0.00,WUHU216HW,2013-03-13 14:00:00,
2013-03-13 10:06:00,52.2,39.5,29.97,North,0,0.0,0.0,62,0.00,,,0.00,WUHU216HW,2013-03-13 14:06:00,
2013-03-13 10:11:00,52.6,39.5,29.97,North,0,0.0,0.0,61,0.00,,,0.00,WUHU216HW,2013-03-13 14:11:00,
2013-03-13 10:16:00,52.9,39.0,29.97,North,0,0.0,0.0,59,0.00,,,0.00,WUHU216HW,2013-03-13 14:16:00,
2013-03-13 10:21:00,53.3,35.7,29.97,North,0,0.0,0.0,51,0.00,,,0.00,WUHU216HW,2013-03-13 14:21:00,
2013-03-13 10:26:00,53.1,36.8,29.97,North,0,0.0,0.0,54,0.00,,,0.00,WUHU216HW,2013-03-13 14:26:00,
2013-03-13 10:32:00,53.3,37.0,29.96,North,0,0.0,0.0,54,0.00,,,0.00,WUHU216HW,2013-03-13 14:32:00,
2013-03-13 10:37:00,53.6,36.9,29.96,North,0,0.0,0.0,53,0.00,,,0.00,WUHU216HW,2013-03-13 14:37:00,
2013-03-13 10:42:00,54.2,37.8,29.96,North,0,0.0,0.0,54,0.00,,,0.00,WUHU216HW,2013-03-13 14:42:00,
2013-03-13 10:47:00,54.5,37.7,29.96,North,0,0.0,0.0,53,0.00,,,0.00,WUHU216HW,2013-03-13 14:47:00,
2013-03-13 10:52:00,54.9,37.1,29.96,North,0,0.0,0.0,51,0.00,,,0.00,WUHU216HW,2013-03-13 14:52:00,
2013-03-13 10:57:00,55.3,37.4,29.96,North,0,0.0,0.0,51,0.00,,,0.00,WUHU216HW,2013-03-13 14:57:00,
2013-03-13 11:02:00,55.4,36.6,29.96,North,0,0.0,0.0,49,0.00,,,0.00,WUHU216HW,2013-03-13 15:02:00,
2013-03-13 11:07:00,55.4,36.6,29.96,North,0,0.0,0.0,49,0.00,,,0.00,WUHU216HW,2013-03-13 15:07:00,
2013-03-13 11:12:00,55.8,36.9,29.96,North,0,0.0,0.0,49,0.00,,,0.00,WUHU216HW,2013-03-13 15:12:00,
2013-03-13 11:17:00,56.2,36.6,29.96,North,0,0.0,0.0,48,0.00,,,0.00,WUHU216HW,2013-03-13 15:17:00,
2013-03-13 11:22:00,56.5,37.0,29.96,North,0,0.0,0.0,48,0.00,,,0.00,WUHU216HW,2013-03-13 15:22:00,
2013-03-13 11:27:00,56.9,37.4,29.96,North,0,0.0,0.0,48,0.00,,,0.00,WUHU216HW,2013-03-13 15:27:00,
2013-03-13 11:32:00,57.4,37.4,29.96,North,0,0.0,0.0,47,0.00,,,0.00,WUHU216HW,2013-03-13 15:32:00,
2013-03-13 11:38:00,57.8,37.6,29.96,North,0,0.0,0.0,47,0.00,,,0.00,WUHU216HW,2013-03-13 15:38:00,
2013-03-13 11:43:00,58.0,36.6,29.96,North,0,0.0,0.0,45,0.00,,,0.00,WUHU216HW,2013-03-13 15:43:00,
2013-03-13 11:48:00,58.1,37.4,29.96,North,0,0.0,0.0,46,0.00,,,0.00,WUHU216HW,2013-03-13 15:48:00,
2013-03-13 11:53:00,58.7,38.4,29.95,North,0,0.0,0.0,47,0.00,,,0.00,WUHU216HW,2013-03-13 15:53:00,
2013-03-13 11:58:00,58.7,37.9,29.95,North,0,0.0,0.0,46,0.00,,,0.00,WUHU216HW,2013-03-13 15:58:00,
2013-03-13 12:03:00,59.2,37.8,29.95,North,0,0.0,0.0,45,0.00,,,0.00,WUHU216HW,2013-03-13 16:03:00,
2013-03-13 12:08:00,59.6,38.7,29.95,North,0,0.0,0.0,46,0.00,,,0.00,WUHU216HW,2013-03-13 16:08:00,
2013-03-13 12:13:00,60.1,38.0,29.95,North,0,0.0,0.0,44,0.00,,,0.00,WUHU216HW,2013-03-13 16:13:00,
2013-03-13 12:18:00,60.3,38.2,29.95,North,0,0.0,0.0,44,0.00,,,0.00,WUHU216HW,2013-03-13 16:18:00,
2013-03-13 12:23:00,60.3,37.6,29.95,North,0,0.0,0.0,43,0.00,,,0.00,WUHU216HW,2013-03-13 16:23:00,
2013-03-13 12:28:00,60.3,37.0,29.95,North,0,0.0,0.0,42,0.00,,,0.00,WUHU216HW,2013-03-13 16:28:00,
2013-03-13 12:33:00,60.1,36.9,29.94,North,0,0.0,0.0,42,0.00,,,0.00,WUHU216HW,2013-03-13 16:33:00,
2013-03-13 12:38:00,60.1,36.9,29.94,North,0,0.0,0.0,42,0.00,,,0.00,WUHU216HW,2013-03-13 16:38:00,
2013-03-13 12:43:00,59.9,36.1,29.94,North,0,0.0,0.0,41,0.00,,,0.00,WUHU216HW,2013-03-13 16:43:00,
2013-03-13 12:49:00,59.6,35.8,29.95,North,0,0.0,0.0,41,0.00,,,0.00,WUHU216HW,2013-03-13 16:49:00,
2013-03-13 12:54:00,59.8,36.5,29.94,North,0,0.0,0.0,42,0.00,,,0.00,WUHU216HW,2013-03-13 16:54:00,
2013-03-13 12:59:00,59.8,36.5,29.94,North,0,0.0,0.0,42,0.00,,,0.00,WUHU216HW,2013-03-13 16:59:00,
2013-03-13 13:04:00,59.8,36.0,29.94,North,0,0.0,0.0,41,0.00,,,0.00,WUHU216HW,2013-03-13 17:04:00,
2013-03-13 13:09:00,59.4,35.6,29.94,North,0,0.0,0.0,41,0.00,,,0.00,WUHU216HW,2013-03-13 17:09:00,
2013-03-13 13:14:00,59.6,35.8,29.93,North,0,0.0,0.0,41,0.00,,,0.00,WUHU216HW,2013-03-13 17:14:00,
2013-03-13 13:19:00,59.9,35.6,29.93,North,0,0.0,0.0,40,0.00,,,0.00,WUHU216HW,2013-03-13 17:19:00,
2013-03-13 13:24:00,59.6,35.2,29.93,North,0,0.0,0.0,40,0.00,,,0.00,WUHU216HW,2013-03-13 17:24:00,
2013-03-13 13:29:00,59.4,35.1,29.92,North,0,0.0,0.0,40,0.00,,,0.00,WUHU216HW,2013-03-13 17:29:00,
2013-03-13 13:34:00,58.9,35.2,29.92,North,0,0.0,0.0,41,0.00,,,0.00,WUHU216HW,2013-03-13 17:34:00,
2013-03-13 13:39:00,58.7,35.0,29.92,North,0,0.0,0.0,41,0.00,,,0.00,WUHU216HW,2013-03-13 17:39:00,
2013-03-13 13:44:00,58.7,35.0,29.92,North,0,0.0,0.0,41,0.00,,,0.00,WUHU216HW,2013-03-13 17:44:00,
2013-03-13 13:50:00,58.9,35.2,29.91,North,0,0.0,0.0,41,0.00,,,0.00,WUHU216HW,2013-03-13 17:50:00,
2013-03-13 13:55:00,59.4,35.6,29.91,North,0,0.0,0.0,41,0.00,,,0.00,WUHU216HW,2013-03-13 17:55:00,
2013-03-13 14:00:00,59.6,35.8,29.91,North,0,0.0,0.0,41,0.00,,,0.00,WUHU216HW,2013-03-13 18:00:00,
2013-03-13 14:05:00,59.9,35.6,29.91,North,0,0.0,0.0,40,0.00,,,0.00,WUHU216HW,2013-03-13 18:05:00,
2013-03-13 14:10:00,60.1,35.7,29.91,North,0,0.0,0.0,40,0.00,,,0.00,WUHU216HW,2013-03-13 18:10:00,
2013-03-13 14:15:00,60.1,35.0,29.90,North,0,0.0,0.0,39,0.00,,,0.00,WUHU216HW,2013-03-13 18:15:00,
2013-03-13 14:20:00,60.1,34.3,29.90,North,0,0.0,0.0,38,0.00,,,0.00,WUHU216HW,2013-03-13 18:20:00,
2013-03-13 14:25:00,59.6,34.6,29.90,North,0,0.0,0.0,39,0.00,,,0.00,WUHU216HW,2013-03-13 18:25:00,
2013-03-13 14:30:00,59.8,34.7,29.90,North,0,0.0,0.0,39,0.00,,,0.00,WUHU216HW,2013-03-13 18:30:00,
2013-03-13 14:35:00,60.1,34.3,29.89,North,0,0.0,0.0,38,0.00,,,0.00,WUHU216HW,2013-03-13 18:35:00,
2013-03-13 14:40:00,60.1,33.6,29.89,North,0,0.0,0.0,37,0.00,,,0.00,WUHU216HW,2013-03-13 18:40:00,
2013-03-13 14:45:00,60.3,34.5,29.89,North,0,0.0,0.0,38,0.00,,,0.00,WUHU216HW,2013-03-13 18:45:00,
2013-03-13 14:50:00,60.5,33.9,29.89,North,0,0.0,0.0,37,0.00,,,0.00,WUHU216HW,2013-03-13 18:50:00,
2013-03-13 14:55:00,60.5,33.9,29.88,North,0,0.0,0.0,37,0.00,,,0.00,WUHU216HW,2013-03-13 18:55:00,
2013-03-13 15:01:00,60.7,34.7,29.88,North,0,0.0,0.0,38,0.00,,,0.00,WUHU216HW,2013-03-13 19:01:00,
2013-03-13 15:06:00,61.0,34.4,29.88,North,0,0.0,0.0,37,0.00,,,0.00,WUHU216HW,2013-03-13 19:06:00,
2013-03-13 15:11:00,60.8,34.2,29.88,North,0,0.0,0.0,37,0.00,,,0.00,WUHU216HW,2013-03-13 19:11:00,
2013-03-13 15:16:00,60.7,34.0,29.88,North,0,0.0,0.0,37,0.00,,,0.00,WUHU216HW,2013-03-13 19:16:00,
2013-03-13 15:21:00,60.3,33.8,29.88,North,0,0.0,0.0,37,0.00,,,0.00,WUHU216HW,2013-03-13 19:21:00,
2013-03-13 15:27:00,60.1,34.3,29.87,North,0,0.0,0.0,38,0.00,,,0.00,WUHU216HW,2013-03-13 19:27:00,
2013-03-13 15:32:00,59.9,34.1,29.87,North,0,0.0,0.0,38,0.00,,,0.00,WUHU216HW,2013-03-13 19:32:00,
2013-03-13 15:37:00,59.8,33.9,29.87,North,0,0.0,0.0,38,0.00,,,0.00,WUHU216HW,2013-03-13 19:37:00,
2013-03-13 15:42:00,59.6,33.9,29.88,North,0,0.0,0.0,38,0.00,,,0.00,WUHU216HW,2013-03-13 19:42:00,
2013-03-13 15:47:00,59.4,33.7,29.87,North,0,0.0,0.0,38,0.00,,,0.00,WUHU216HW,2013-03-13 19:47:00,
2013-03-13 15:52:00,59.2,32.8,29.88,North,0,0.0,0.0,37,0.00,,,0.00,WUHU216HW,2013-03-13 19:52:00,
2013-03-13 15:57:00,59.2,32.8,29.87,North,0,0.0,0.0,37,0.00,,,0.00,WUHU216HW,2013-03-13 19:57:00,
2013-03-13 16:02:00,59.6,33.1,29.87,North,0,0.0,0.0,37,0.00,,,0.00,WUHU216HW,2013-03-13 20:02:00,
2013-03-13 16:07:00,59.8,33.3,29.87,North,0,0.0,0.0,37,0.00,,,0.00,WUHU216HW,2013-03-13 20:07:00,
2013-03-13 16:12:00,59.6,32.4,29.87,North,0,0.0,0.0,36,0.00,,,0.00,WUHU216HW,2013-03-13 20:12:00,
2013-03-13 16:17:00,59.0,32.7,29.87,North,0,0.0,0.0,37,0.00,,,0.00,WUHU216HW,2013-03-13 20:17:00,
2013-03-13 16:22:00,59.2,32.8,29.87,North,0,0.0,0.0,37,0.00,,,0.00,WUHU216HW,2013-03-13 20:22:00,
2013-03-13 16:28:00,59.2,32.8,29.87,North,0,0.0,0.0,37,0.00,,,0.00,WUHU216HW,2013-03-13 20:28:00,
2013-03-13 16:33:00,59.4,32.2,29.87,North,0,0.0,0.0,36,0.00,,,0.00,WUHU216HW,2013-03-13 20:33:00,
2013-03-13 16:38:00,59.4,32.9,29.87,North,0,0.0,0.0,37,0.00,,,0.00,WUHU216HW,2013-03-13 20:38:00,
2013-03-13 16:43:00,59.2,30.7,29.87,North,0,0.0,0.0,34,0.00,,,0.00,WUHU216HW,2013-03-13 20:43:00,
2013-03-13 16:48:00,59.0,32.0,29.87,North,0,0.0,0.0,36,0.00,,,0.00,WUHU216HW,2013-03-13 20:48:00,
2013-03-13 16:53:00,58.9,31.8,29.87,North,0,0.0,0.0,36,0.00,,,0.00,WUHU216HW,2013-03-13 20:53:00,
2013-03-13 16:58:00,58.7,31.6,29.88,North,0,0.0,0.0,36,0.00,,,0.00,WUHU216HW,2013-03-13 20:58:00,
2013-03-13 17:03:00,58.7,30.9,29.87,North,0,0.0,0.0,35,0.00,,,0.00,WUHU216HW,2013-03-13 21:03:00,
2013-03-13 17:08:00,58.5,31.4,29.88,North,0,0.0,0.0,36,0.00,,,0.00,WUHU216HW,2013-03-13 21:08:00,
2013-03-13 17:13:00,58.3,31.3,29.88,North,0,0.0,0.0,36,0.00,,,0.00,WUHU216HW,2013-03-13 21:13:00,
2013-03-13 17:18:00,58.5,31.4,29.88,North,0,0.0,0.0,36,0.00,,,0.00,WUHU216HW,2013-03-13 21:18:00,
2013-03-13 17:23:00,58.3,30.6,29.89,North,0,0.0,0.0,35,0.00,,,0.00,WUHU216HW,2013-03-13 21:23:00,
2013-03-13 17:28:00,58.0,31.0,29.89,North,0,0.0,0.0,36,0.00,,,0.00,WUHU216HW,2013-03-13 21:28:00,
2013-03-13 17:33:00,57.6,30.6,29.89,North,0,0.0,0.0,36,0.00,,,0.00,WUHU216HW,2013-03-13 21:33:00,
2013-03-13 17:39:00,57.1,30.2,29.89,North,0,0.0,0.0,36,0.00,,,0.00,WUHU216HW,2013-03-13 21:39:00,
2013-03-13 17:44:00,56.9,30.0,29.89,North,0,0.0,0.0,36,0.00,,,0.00,WUHU216HW,2013-03-13 21:44:00,
2013-03-13 17:49:00,56.5,29.7,29.90,North,0,0.0,0.0,36,0.00,,,0.00,WUHU216HW,2013-03-13 21:49:00,
2013-03-13 17:54:00,56.3,29.5,29.90,North,0,0.0,0.0,36,0.00,,,0.00,WUHU216HW,2013-03-13 21:54:00,
2013-03-13 17:59:00,56.2,29.3,29.90,North,0,0.0,0.0,36,0.00,,,0.00,WUHU216HW,2013-03-13 21:59:00,
2013-03-13 18:04:00,55.6,28.9,29.91,North,0,0.0,0.0,36,0.00,,,0.00,WUHU216HW,2013-03-13 22:04:00,
2013-03-13 18:09:00,55.6,29.5,29.91,North,0,0.0,0.0,37,0.00,,,0.00,WUHU216HW,2013-03-13 22:09:00,
2013-03-13 18:14:00,55.3,29.3,29.91,North,0,0.0,0.0,37,0.00,,,0.00,WUHU216HW,2013-03-13 22:14:00,
2013-03-13 18:19:00,54.9,28.3,29.91,North,0,0.0,0.0,36,0.00,,,0.00,WUHU216HW,2013-03-13 22:19:00,
2013-03-13 18:24:00,54.5,28.6,29.91,North,0,0.0,0.0,37,0.00,,,0.00,WUHU216HW,2013-03-13 22:24:00,
2013-03-13 18:29:00,54.2,27.6,29.91,North,0,0.0,0.0,36,0.00,,,0.00,WUHU216HW,2013-03-13 22:29:00,
2013-03-13 18:34:00,53.8,27.3,29.92,North,0,0.0,0.0,36,0.00,,,0.00,WUHU216HW,2013-03-13 22:34:00,
2013-03-13 18:39:00,53.6,28.5,29.92,North,0,0.0,0.0,38,0.00,,,0.00,WUHU216HW,2013-03-13 22:39:00,
2013-03-13 18:44:00,54.4,29.9,29.92,North,0,0.0,0.0,39,0.00,,,0.00,WUHU216HW,2013-03-13 22:44:00,
2013-03-13 18:49:00,56.5,33.0,29.93,North,0,0.0,0.0,41,0.00,,,0.00,WUHU216HW,2013-03-13 22:49:00,
2013-03-13 18:55:00,59.9,35.6,29.93,North,0,0.0,0.0,40,0.00,,,0.00,WUHU216HW,2013-03-13 22:55:00,
2013-03-13 19:00:00,61.7,34.3,29.94,North,0,0.0,0.0,36,0.00,,,0.00,WUHU216HW,2013-03-13 23:00:00,
2013-03-13 19:05:00,60.7,31.9,29.94,North,0,0.0,0.0,34,0.00,,,0.00,WUHU216HW,2013-03-13 23:05:00,
2013-03-13 19:10:00,59.4,30.2,29.94,North,0,0.0,0.0,33,0.00,,,0.00,WUHU216HW,2013-03-13 23:10:00,
2013-03-13 19:15:00,57.4,27.6,29.95,North,0,0.0,0.0,32,0.00,,,0.00,WUHU216HW,2013-03-13 23:15:00,
2013-03-13 19:20:00,56.5,28.3,29.95,North,0,0.0,0.0,34,0.00,,,0.00,WUHU216HW,2013-03-13 23:20:00,
2013-03-13 19:25:00,55.8,27.6,29.95,North,0,0.0,0.0,34,0.00,,,0.00,WUHU216HW,2013-03-13 23:25:00,
2013-03-13 19:30:00,54.7,26.6,29.95,North,0,0.0,0.0,34,0.00,,,0.00,WUHU216HW,2013-03-13 23:30:00,
2013-03-13 19:35:00,54.0,26.1,29.96,North,0,0.0,0.0,34,0.00,,,0.00,WUHU216HW,2013-03-13 23:35:00,
2013-03-13 19:40:00,53.3,26.1,29.96,North,0,0.0,0.0,35,0.00,,,0.00,WUHU216HW,2013-03-13 23:40:00,
2013-03-13 19:45:00,52.9,26.5,29.96,North,0,0.0,0.0,36,0.00,,,0.00,WUHU216HW,2013-03-13 23:45:00,
2013-03-13 19:50:00,52.2,25.8,29.97,North,0,0.0,0.0,36,0.00,,,0.00,WUHU216HW,2013-03-13 23:50:00,
2013-03-13 19:55:00,51.5,25.2,29.98,North,0,0.0,0.0,36,0.00,,,0.00,WUHU216HW,2013-03-13 23:55:00,
2013-03-13 20:01:00,50.9,24.8,29.98,North,0,0.0,0.0,36,0.00,,,0.00,WUHU216HW,2013-03-14 00:01:00,
2013-03-13 20:06:00,50.6,25.1,29.99,North,0,0.0,0.0,37,0.00,,,0.00,WUHU216HW,2013-03-14 00:06:00,
2013-03-13 20:11:00,50.0,24.0,29.99,North,0,0.0,0.0,36,0.00,,,0.00,WUHU216HW,2013-03-14 00:11:00,
2013-03-13 20:16:00,49.5,24.1,29.99,North,0,0.0,0.0,37,0.00,,,0.00,WUHU216HW,2013-03-14 00:16:00,
2013-03-13 20:21:00,49.1,23.8,29.99,North,0,0.0,0.0,37,0.00,,,0.00,WUHU216HW,2013-03-14 00:21:00,
2013-03-13 20:26:00,49.0,24.3,29.99,North,0,0.0,0.0,38,0.00,,,0.00,WUHU216HW,2013-03-14 00:26:00,
2013-03-13 20:31:00,48.4,23.9,30.00,North,0,0.0,0.0,38,0.00,,,0.00,WUHU216HW,2013-03-14 00:31:00,
2013-03-13 20:37:00,47.9,23.4,30.00,North,0,0.0,0.0,38,0.00,,,0.00,WUHU216HW,2013-03-14 00:37:00,
2013-03-13 20:42:00,47.9,23.4,30.00,North,0,0.0,0.0,38,0.00,,,0.00,WUHU216HW,2013-03-14 00:42:00,
2013-03-13 20:47:00,47.7,23.2,30.00,North,0,0.0,0.0,38,0.00,,,0.00,WUHU216HW,2013-03-14 00:47:00,
2013-03-13 20:52:00,47.5,23.0,30.00,North,0,0.0,0.0,38,0.00,,,0.00,WUHU216HW,2013-03-14 00:52:00,
2013-03-13 20:57:00,47.2,22.7,30.01,North,0,0.0,0.0,38,0.00,,,0.00,WUHU216HW,2013-03-14 00:57:00,
2013-03-13 21:02:00,46.8,22.4,30.01,North,0,0.0,0.0,38,0.00,,,0.00,WUHU216HW,2013-03-14 01:02:00,
2013-03-13 21:07:00,46.6,22.2,30.01,North,0,0.0,0.0,38,0.00,,,0.00,WUHU216HW,2013-03-14 01:07:00,
2013-03-13 21:12:00,46.3,21.9,30.01,North,0,0.0,0.0,38,0.00,,,0.00,WUHU216HW,2013-03-14 01:12:00,
2013-03-13 21:17:00,46.1,21.8,30.02,North,0,0.0,0.0,38,0.00,,,0.00,WUHU216HW,2013-03-14 01:17:00,
2013-03-13 21:22:00,46.1,22.4,30.02,North,0,0.0,0.0,39,0.00,,,0.00,WUHU216HW,2013-03-14 01:22:00,
2013-03-13 21:27:00,45.9,22.2,30.01,North,0,0.0,0.0,39,0.00,,,0.00,WUHU216HW,2013-03-14 01:27:00,
2013-03-13 21:33:00,45.7,22.1,30.02,North,0,0.0,0.0,39,0.00,,,0.00,WUHU216HW,2013-03-14 01:33:00,
2013-03-13 21:38:00,45.4,21.8,30.02,North,0,0.0,0.0,39,0.00,,,0.00,WUHU216HW,2013-03-14 01:38:00,
2013-03-13 21:43:00,45.2,21.6,30.02,North,0,0.0,0.0,39,0.00,,,0.00,WUHU216HW,2013-03-14 01:43:00,
2013-03-13 21:48:00,45.0,21.4,30.02,North,0,0.0,0.0,39,0.00,,,0.00,WUHU216HW,2013-03-14 01:48:00,
2013-03-13 21:53:00,45.0,21.4,30.02,North,0,0.0,0.0,39,0.00,,,0.00,WUHU216HW,2013-03-14 01:53:00,
2013-03-13 21:58:00,44.8,21.2,30.02,North,0,0.0,0.0,39,0.00,,,0.00,WUHU216HW,2013-03-14 01:58:00,
2013-03-13 22:03:00,44.6,21.8,30.03,North,0,0.0,0.0,40,0.00,,,0.00,WUHU216HW,2013-03-14 02:03:00,
2013-03-13 22:08:00,44.5,21.6,30.02,North,0,0.0,0.0,40,0.00,,,0.00,WUHU216HW,2013-03-14 02:08:00,
2013-03-13 22:13:00,44.5,21.6,30.02,North,0,0.0,0.0,40,0.00,,,0.00,WUHU216HW,2013-03-14 02:13:00,
2013-03-13 22:18:00,44.3,21.4,30.03,North,0,0.0,0.0,40,0.00,,,0.00,WUHU216HW,2013-03-14 02:18:00,
2013-03-13 22:23:00,44.3,21.4,30.03,North,0,0.0,0.0,40,0.00,,,0.00,WUHU216HW,2013-03-14 02:23:00,
2013-03-13 22:28:00,44.1,21.3,30.03,North,0,0.0,0.0,40,0.00,,,0.00,WUHU216HW,2013-03-14 02:28:00,
2013-03-13 22:33:00,44.1,21.9,30.03,North,0,0.0,0.0,41,0.00,,,0.00,WUHU216HW,2013-03-14 02:33:00,
2013-03-13 22:38:00,43.9,21.7,30.03,North,0,0.0,0.0,41,0.00,,,0.00,WUHU216HW,2013-03-14 02:38:00,
2013-03-13 22:43:00,43.7,21.5,30.03,North,0,0.0,0.0,41,0.00,,,0.00,WUHU216HW,2013-03-14 02:43:00,
2013-03-13 22:48:00,43.6,21.3,30.04,North,0,0.0,0.0,41,0.00,,,0.00,WUHU216HW,2013-03-14 02:48:00,
2013-03-13 22:53:00,43.6,21.9,30.03,North,0,0.0,0.0,42,0.00,,,0.00,WUHU216HW,2013-03-14 02:53:00,
2013-03-13 22:59:00,43.4,21.2,30.04,North,0,0.0,0.0,41,0.00,,,0.00,WUHU216HW,2013-03-14 02:59:00,
2013-03-13 23:04:00,43.2,21.1,30.04,North,0,0.0,0.0,41,0.00,,,0.00,WUHU216HW,2013-03-14 03:04:00,
2013-03-13 23:09:00,42.8,20.7,30.04,North,0,0.0,0.0,41,0.00,,,0.00,WUHU216HW,2013-03-14 03:09:00,
2013-03-13 23:14:00,42.8,21.2,30.04,North,0,0.0,0.0,42,0.00,,,0.00,WUHU216HW,2013-03-14 03:14:00,
2013-03-13 23:19:00,42.7,21.1,30.04,North,0,0.0,0.0,42,0.00,,,0.00,WUHU216HW,2013-03-14 03:19:00,
2013-03-13 23:24:00,42.5,20.9,30.04,North,0,0.0,0.0,42,0.00,,,0.00,WUHU216HW,2013-03-14 03:24:00,
2013-03-13 23:29:00,42.5,20.9,30.04,North,0,0.0,0.0,42,0.00,,,0.00,WUHU216HW,2013-03-14 03:29:00,
2013-03-13 23:34:00,42.5,20.9,30.04,North,0,0.0,0.0,42,0.00,,,0.00,WUHU216HW,2013-03-14 03:34:00,
2013-03-13 23:39:00,42.3,20.7,30.04,North,0,0.0,0.0,42,0.00,,,0.00,WUHU216HW,2013-03-14 03:39:00,
2013-03-13 23:44:00,42.1,20.6,30.04,North,0,0.0,0.0,42,0.00,,,0.00,WUHU216HW,2013-03-14 03:44:00,
2013-03-13 23:49:00,42.1,20.6,30.04,North,0,0.0,0.0,42,0.00,,,0.00,WUHU216HW,2013-03-14 03:49:00,
2013-03-13 23:54:00,41.9,20.4,30.04,North,0,0.0,0.0,42,0.00,,,0.00,WUHU216HW,2013-03-14 03:54:00,
2013-03-13 23:59:00,41.9,20.4,30.04,North,0,0.0,0.0,42,0.00,,,0.00,WUHU216HW,2013-03-14 03:59:00,